Regional Weather Roundup
Issued by NWS

Home | Current Version | Previous Version | Text Only | Print | Product List | Glossary Off
Versions: 1 2 3 4 5 6 7 8 9 10 11 12 13 14 15 16 17 18 19 20 21 22 23 24 25 26 27 28 29 30 31 32 33 34 35 36 37 38 39 40 41 42 43 44 45 46 47 48 49 50

000
ASUS43 KDMX 300401
RWRIA

WEATHER ROUNDUP FOR IOWA
NATIONAL WEATHER SERVICE DES MOINES IA
1100 PM CDT SAT APR 29 2017

NOTE: "FAIR" INDICATES FEW OR NO CLOUDS BELOW 12,000 FEET WITH NO
SIGNIFICANT WEATHER AND/OR OBSTRUCTIONS TO VISIBILITY.

* - THESE STATIONS ARE NOT NWS STATIONS...THUS NOT UNDER NWS
QUALITY CONTROL.  THEY ALSO DO NOT REPORT WEATHER SUCH
AS PRECIPITATION OR FOG.

IAZ001>003-012>014-020>022-031>034-043>046-300500-
   NORTHWEST IOWA

CITY           SKY/WX    TMP DP  RH WIND       PRES   REMARKS
CARROLL *      CLOUDY    41  36  81 NE22G32   30.04F
CHEROKEE *     DRIZZLE   45  32  61 NE8G16    30.09S
DENISON *      CLOUDY    39  37  93 NE13G23   30.07F FOG     WCI  32
ORANGE CITY *  CLOUDY    46  30  53 NE8       30.11F
SHELDON *      CLOUDY    46  28  49 NE12      30.12R
SIOUX CITY     CLOUDY    47  32  56 NE12      30.09F
SPENCER        CLOUDY    47  31  53 NE14      30.12S
STORM LAKE *   CLOUDY    43  34  70 E21       30.09R
$$

IAZ055>058-069>071-079>083-090>094-300500-
   SOUTHWEST IOWA

CITY           SKY/WX    TMP DP  RH WIND       PRES   REMARKS
ATLANTIC *     MIX PCPN  41  39  93 NE15G29   29.99F
AUDUBON *      CLOUDY    41  36  81 NE17G30   30.02F
CLARINDA *     CLOUDY    41  41 100 NE12      29.96F FOG
COUNCIL BLFS * CLOUDY    41  41 100 NE18G30   29.99F
CRESTON *      LGT RAIN  39  39 100 NE23G31   29.97S WCI  29
HARLAN  *      CLOUDY    41  37  87 NE22G32   30.03F
LAMONI         CLOUDY    41  40  96 NE17G24   29.94F FOG
RED OAK *      LGT RAIN  41  39  93 NE16G22   29.98F
SHENANDOAH *   MIX PCPN  41  39  93 NE22      29.96F
$$

IAZ047>049-059>061-072>074-084-300500-
   CENTRAL IOWA

CITY           SKY/WX    TMP DP  RH WIND       PRES   REMARKS
AMES           LGT RAIN  41  38  89 NE18G28   30.04S FOG
ANKENY *       LGT RAIN  39  37  93 NE14G20   30.04S WCI  31
BOONE *        MIX PCPN  41  39  93 NE22      30.04S
CHARITON *     CLOUDY    41  39  93 NE10G20   29.97S FOG
DES MOINES     LGT RAIN  41  39  93 NE14      30.02R FOG
GRINNELL*      DRIZZLE   39  38  96 NE16G23   30.02R WCI  31
KNOXVILLE *    CLOUDY    41  39  93 NE14G21   29.98S FOG
MARSHALLTOWN   LGT RAIN  40  37  89 NE18G25   30.04R FOG     WCI  31
NEWTON *       CLOUDY    39  39 100 NE15G22   30.00S FOG     WCI  31
PELLA *        DRIZZLE   40  39  97 NE7       30.00F
PERRY *        CLOUDY    40  37  89 NE16G26   30.04R WCI  32
$$

IAZ004>006-015-016-023>025-035-036-300500-
   NORTH CENTRAL IOWA

CITY           SKY/WX    TMP DP  RH WIND       PRES   REMARKS
ALGONA *       DRIZZLE   45  34  65 NE12      30.11R
CLARION *      CLOUDY    43  36  75 NE15      30.09R
ESTHERVILLE    CLOUDY    45  32  60 NE14      30.12F
FORT DODGE *   CLOUDY    43  32  65 NE8       30.10R
MASON CITY     LGT RAIN  44  31  60 E15       30.12R
FOREST CITY *  RAIN      45  27  49 NE9       30.11R
WEBSTER CITY * MIX PCPN  43  34  70 NE14      30.06S
IOWA FALLS *   MIX PCPN  44  34  67 NE13G24   30.07R
$$

IAZ007>011-017>019-026>030-037>042-050>054-066-300500-
   NORTHEAST IOWA

CITY           SKY/WX    TMP DP  RH WIND       PRES   REMARKS
CEDAR RAPIDS   LGT RAIN  40  39  97 NE15      30.01S FOG     WCI  32
CHARLES CITY * CLOUDY    45  27  49 NE16G26   30.09R
CLINTON *      CLOUDY    41  39  93 E18G28    30.01R
DECORAH *      CLOUDY    43  27  52 NE14G22   30.08S
DUBUQUE        LGT RAIN  39  36  89 NE17      30.05R FOG     WCI  30
MONTICELLO *   CLOUDY    41  36  81 NE12G21   30.03S
OELWEIN *      CLOUDY    41  36  81 NE16G24   30.05F
WATERLOO       CLOUDY    42  33  70 NE14      30.07R
$$

IAZ064-065-067-068-078-300500-
   EAST CENTRAL IOWA

CITY           SKY/WX    TMP DP  RH WIND       PRES   REMARKS
DAVENPORT      CLOUDY    41  38  89 NE16G28   30.00S
IOWA CITY      LGT RAIN  42  39  89 NE14      30.02F FOG
MUSCATINE *    MIX PCPN  43  39  87 NE15G22   29.99F
QUAD CITIES    CLOUDY    42  39  89 NE16      29.99R FOG
$$

IAZ062-063-075>077-085>089-095>099-300500-
   SOUTHEAST IOWA

CITY           SKY/WX    TMP DP  RH WIND       PRES   REMARKS
BURLINGTON     CLOUDY    42  42 100 NE17      29.93F
FAIRFIELD *    CLOUDY    41  39  93 NE14G22   29.96S FOG
FORT MADISON * CLOUDY    43  41  93 NE13G20   29.92F
KEOKUK *       CLOUDY    43  41  93 NE12G20   29.91S
OSKALOOSA *    CLOUDY    40  39  97 NE18G24   29.98R FOG     WCI  30
OTTUMWA        CLOUDY    41  40  96 NE15      29.98R FOG
WASHINGTON *   CLOUDY    41  41 100 NE17G25   29.99F FOG
$$

ABBREVIATIONS USED IN REMARKS
   TC - TEMPERATURES IN CELSIUS
  WCI - WIND CHILL INDEX
   HX - HEAT INDEX
  VSB - VISIBILITY
$$





USA.gov is the U.S. government's official web portal to all federal, state and local government web resources and services.